Weather reports worldwide

Advertisment
Aboyne, United Kingdom (3080): temperature & dewpoint: 08.12.2017 15:00:00 - 14.12.2017 15:00:00 (GMT)Aboyne, United Kingdom (3080): temperature -20cm & temperature -100cm: 08.12.2017 15:00:00 - 14.12.2017 15:00:00 (GMT)Aboyne, United Kingdom (3080): wind speed & gusts: 08.12.2017 15:00:00 - 14.12.2017 15:00:00 (GMT)Aboyne, United Kingdom (3080): wind direction: 08.12.2017 15:00:00 - 14.12.2017 15:00:00 (GMT)Aboyne, United Kingdom (3080): reduced air pressure: 08.12.2017 15:00:00 - 14.12.2017 15:00:00 (GMT)Aboyne, United Kingdom (3080): visibility: 08.12.2017 15:00:00 - 14.12.2017 15:00:00 (GMT)Aboyne, United Kingdom (3080): precipitation: 08.12.2017 15:00:00 - 14.12.2017 15:00:00 (GMT)
Date & Time tt [°C] td [°C] tt -20cm [°C] tt -100cm [°C] ff [km/h] ff [kn] fx [km/h] fx [kn] dd ppp [hPa] vv [km] rr [mm]
14.12.2017 15:00:00 - - - - - - - - - - - -
14.12.2017 14:00:00 2,0 -2,5 - - 5 3 - - SW 979,7 35 0,0
14.12.2017 13:00:00 -0,2 -2,7 - - 5 3 - - WSW 979,7 45 0,0
14.12.2017 12:00:00 -1,0 -2,3 - - 5 3 - - W 979,4 45 0,0
14.12.2017 11:00:00 -1,9 -2,2 - - 8 4 - - WSW 979,7 40 0,0
14.12.2017 10:00:00 -4,6 -4,9 - - 4 2 - - WSW 979,9 40 0,0
14.12.2017 09:00:00 -5,1 -5,2 3,0 5,0 5 3 - - ENE 979,7 45 0,0
14.12.2017 08:00:00 -3,9 -4,3 - - 9 5 - - W 979,2 35 0,0
14.12.2017 07:00:00 -3,2 -4,2 - - 4 2 - - E 979,0 50 0,0
14.12.2017 06:00:00 0,9 -1,9 - - 15 8 - - WNW 978,7 50 0,0
14.12.2017 05:00:00 -0,1 -2,4 - - 9 5 - - WNW 978,6 50 0,0
14.12.2017 04:00:00 1,1 -1,8 - - 8 4 - - WNW 978,7 50 0,0
14.12.2017 03:00:00 -0,2 -2,8 - - 5 3 - - NNW 979,2 50 0,0
14.12.2017 02:00:00 1,1 -2,0 - - 11 6 - - NW 979,3 50 0,0
14.12.2017 01:00:00 -2,0 -3,9 - - 13 7 - - WSW 979,5 50 0,0
14.12.2017 00:00:00 0,2 -2,4 - - 21 11 - - W 979,2 50 0,0
13.12.2017 23:00:00 -1,4 -3,7 - - 9 5 - - WNW 979,4 45 0,0
13.12.2017 22:00:00 -1,9 -4,3 - - 15 8 - - W 979,5 50 0,0
13.12.2017 21:00:00 -1,1 -3,2 - - 15 8 - - W 979,6 50 0,0
13.12.2017 20:00:00 -1,6 -3,3 - - 9 5 - - W 979,6 50 0,0
13.12.2017 19:00:00 0,2 -2,3 - - 18 10 - - W 979,6 50 0,0
13.12.2017 18:00:00 0,1 -2,7 - - 15 8 - - W 979,8 50 0,0
13.12.2017 17:00:00 0,6 -2,2 - - 9 5 - - W 979,8 45 0,0
13.12.2017 16:00:00 1,0 -1,8 - - 11 6 - - WNW 979,8 50 0,0
13.12.2017 15:00:00 1,8 -1,7 - - 8 4 - - NW 979,8 45 0,0
13.12.2017 14:00:00 3,0 -1,4 - - 13 7 - - WNW 980,1 45 0,0
13.12.2017 13:00:00 4,2 -0,8 - - 16 9 - - W 980,1 45 0,0
13.12.2017 12:00:00 3,5 0,5 - - 15 8 - - W 981,0 50 0,0
13.12.2017 11:00:00 4,0 2,4 - - 9 5 - - WNW 981,2 50 0,0
13.12.2017 10:00:00 3,3 2,1 - - 11 6 - - W 981,9 40 0,2
13.12.2017 09:00:00 4,8 1,5 3,2 5,2 18 10 - - SW 982,2 50 0,0
13.12.2017 08:00:00 4,8 1,7 - - 13 7 - - SSW 983,3 50 0,0
13.12.2017 07:00:00 3,6 0,8 - - 8 4 - - WNW 984,9 28 0,0
13.12.2017 06:00:00 3,9 0,3 - - 18 10 - - SW 986,6 30 0,0
13.12.2017 05:00:00 1,9 -0,4 - - 8 4 - - NNE 987,9 50 0,0
13.12.2017 04:00:00 1,3 -1,3 - - 5 3 - - W 989,2 40 0,0
13.12.2017 03:00:00 -0,4 -1,7 - - 2 1 - - SSW 990,1 25 0,0
13.12.2017 02:00:00 0,4 -1,5 - - 4 2 - - W 990,5 35 0,0
13.12.2017 01:00:00 2,5 -1,0 - - 5 3 - - W 990,9 40 0,0
13.12.2017 00:00:00 2,0 -0,3 - - 8 4 - - WSW 991,0 35 0,0
12.12.2017 23:00:00 2,8 0,5 - - 15 8 - - W 990,8 50 0,0
12.12.2017 22:00:00 3,1 0,5 - - 16 9 - - W 991,1 40 0,2
12.12.2017 21:00:00 3,3 0,5 - - 15 8 - - SSW 992,1 45 0,0
12.12.2017 20:00:00 3,4 0,7 - - 4 2 - - ENE 992,7 50 0,0
12.12.2017 19:00:00 3,4 0,7 - - 8 4 - - SSW 994,2 50 0,0
12.12.2017 18:00:00 3,0 0,6 - - 9 5 - - WSW 995,3 50 0,0
12.12.2017 17:00:00 -2,1 -2,4 - - 11 6 - - ESE 996,9 17 0,0
12.12.2017 16:00:00 -1,9 -2,5 - - 5 3 - - E 997,7 29 0,0
12.12.2017 15:00:00 -1,1 -2,2 - - 5 3 - - ESE 998,4 40 0,0
12.12.2017 14:00:00 -0,3 -2,7 - - 4 2 - - W 999,2 45 0,0
12.12.2017 13:00:00 1,4 -1,8 - - 5 3 - - WNW 1000,1 40 0,0
12.12.2017 12:00:00 0,5 -1,9 - - 13 7 - - W 1000,6 35 0,0
12.12.2017 11:00:00 -0,7 -2,9 - - 4 2 - - W 1001,0 35 0,0
12.12.2017 10:00:00 -1,1 -3,1 - - 2 1 - - N 1001,5 30 0,0
12.12.2017 09:00:00 -2,0 -3,7 3,4 5,5 11 6 - - W 1001,5 40 0,0
12.12.2017 08:00:00 -3,0 -4,9 - - 5 3 - - WNW 1001,6 45 0,0
12.12.2017 07:00:00 -1,0 -2,7 - - 11 6 - - W 1001,3 40 0,0
12.12.2017 06:00:00 -2,8 -3,5 - - 2 1 - - E 1001,2 45 0,0
12.12.2017 05:00:00 -0,3 -2,2 - - 13 7 - - W 1000,6 40 0,0
12.12.2017 04:00:00 0,4 -1,6 - - 11 6 - - WNW 1000,7 35 0,0
12.12.2017 03:00:00 0,3 -1,5 - - 11 6 - - W 1001,0 35 0,0
12.12.2017 02:00:00 0,1 -1,1 - - 15 8 - - W 1000,7 50 0,0
12.12.2017 01:00:00 -0,3 -0,7 - - 11 6 - - W 1000,1 40 0,0
12.12.2017 00:00:00 -1,5 -1,9 - - 4 2 - - SW 999,6 45 0,0
11.12.2017 23:00:00 0,9 0,0 - - 11 6 - - W 999,0 40 0,0
11.12.2017 22:00:00 0,5 0,0 - - 11 6 - - W 998,9 35 0,2
11.12.2017 21:00:00 1,6 0,9 - - 9 5 - - NW 998,9 10 0,0
11.12.2017 20:00:00 0,6 0,4 - - 5 3 - - W 998,2 26 0,0
11.12.2017 19:00:00 1,2 0,9 - - 4 2 - - WNW 997,3 50 0,0
11.12.2017 18:00:00 1,4 1,3 - - 11 6 - - WSW 995,9 45 0,0
11.12.2017 17:00:00 1,4 1,2 - - 9 5 - - NW 995,4 35 0,4
11.12.2017 16:00:00 0,9 0,9 - - 8 4 - - W 994,2 16 0,0
11.12.2017 15:00:00 2,0 1,4 - - 5 3 - - WNW 993,0 14 0,4
11.12.2017 14:00:00 2,0 0,5 - - 5 3 - - WNW 992,1 50 0,0
11.12.2017 13:00:00 2,6 1,1 - - 9 5 - - WSW 991,1 50 0,0
11.12.2017 12:00:00 2,8 1,0 - - 4 2 - - W 990,9 30 0,0
11.12.2017 11:00:00 2,3 1,0 - - 8 4 - - W 990,1 45 0,0
11.12.2017 10:00:00 -0,6 -0,6 - - 5 3 - - W 989,6 45 0,0
11.12.2017 09:00:00 -1,8 -1,8 3,7 5,7 5 3 - - W 988,9 45 0,0
11.12.2017 08:00:00 -3,7 -3,9 - - 2 1 - - ENE 988,1 23 0,0
11.12.2017 07:00:00 -3,1 -3,5 - - 5 3 - - W 987,4 50 0,0
11.12.2017 06:00:00 -3,7 -4,4 - - 2 1 - - S 986,9 30 0,0
11.12.2017 05:00:00 -1,5 -2,7 - - 9 5 - - W 986,2 50 0,0
11.12.2017 04:00:00 -1,1 -2,7 - - 5 3 - - W 985,5 50 0,0
11.12.2017 03:00:00 -2,7 -3,1 - - 15 8 - - WNW 985,0 50 0,0
11.12.2017 02:00:00 -3,5 -4,8 - - 8 4 - - NW 984,3 50 0,0
11.12.2017 01:00:00 -2,3 -4,2 - - 9 5 - - W 984,0 50 0,0
11.12.2017 00:00:00 -2,5 -5,0 - - 8 4 - - WSW 983,5 35 0,0
10.12.2017 23:00:00 -3,0 -5,9 - - 13 7 - - WSW 983,1 50 0,0
10.12.2017 22:00:00 -3,3 -6,2 - - 13 7 - - W 982,8 50 0,0
10.12.2017 21:00:00 -4,0 -6,8 - - 11 6 - - NW 982,7 50 0,0
10.12.2017 20:00:00 -5,0 -7,2 - - 13 7 - - WNW 982,5 50 0,0
10.12.2017 19:00:00 -4,2 -7,0 - - 16 9 - - W 982,3 50 0,0
10.12.2017 18:00:00 -5,8 -7,5 - - 5 3 - - W 982,2 45 0,0
10.12.2017 17:00:00 -4,6 -7,0 - - 11 6 - - W 981,9 50 0,0
10.12.2017 16:00:00 -3,6 -6,5 - - 11 6 - - W 981,8 40 0,0
10.12.2017 15:00:00 -2,5 -6,3 - - 13 7 - - W 981,6 50 0,0
10.12.2017 14:00:00 -1,1 -5,8 - - 11 6 - - W 982,0 40 0,0
10.12.2017 13:00:00 -1,5 -5,8 - - 16 9 - - W 982,5 50 0,0
10.12.2017 12:00:00 -2,0 -5,8 - - 13 7 - - WNW 983,2 24 0,0
10.12.2017 11:00:00 -3,0 -5,8 - - 9 5 - - WNW 984,2 26 0,0
10.12.2017 10:00:00 -4,6 -5,9 - - 11 6 - - W 985,2 30 0,0
10.12.2017 09:00:00 -6,5 -7,1 4,2 6,0 9 5 - - NW 986,2 40 0,0
10.12.2017 08:00:00 -6,0 -6,9 - - 11 6 - - NW 987,0 45 0,0
10.12.2017 07:00:00 -6,1 -6,6 - - 9 5 - - NW 987,6 50 0,0
10.12.2017 06:00:00 -6,7 -7,6 - - 8 4 - - WNW 988,8 40 0,0
10.12.2017 05:00:00 -4,7 -6,0 - - 8 4 - - NW 989,9 50 0,0
10.12.2017 04:00:00 -3,9 -5,6 - - 9 5 - - SW 991,4 40 0,0
10.12.2017 03:00:00 -2,6 -4,4 - - 15 8 - - NW 992,8 40 0,0
10.12.2017 02:00:00 -3,0 -3,9 - - 16 9 - - WNW 994,3 45 0,0
10.12.2017 01:00:00 -3,7 -5,3 - - 4 2 - - W 996,0 50 0,0
10.12.2017 00:00:00 -2,6 -4,2 - - 5 3 - - WSW 997,3 40 0,0
09.12.2017 23:00:00 -3,6 -5,2 - - 2 1 - - W 998,7 50 0,0
09.12.2017 22:00:00 -3,2 -5,5 - - 2 1 - - N 999,9 50 0,0
09.12.2017 21:00:00 -2,2 -4,2 - - 9 5 - - WNW 1000,9 45 0,0
09.12.2017 20:00:00 -1,3 -3,8 - - 16 9 - - W 1002,0 45 0,0
09.12.2017 19:00:00 -1,3 -3,8 - - 11 6 - - WNW 1003,3 45 0,0
09.12.2017 18:00:00 -0,9 -3,2 - - 11 6 - - W 1004,0 45 0,0
09.12.2017 17:00:00 -1,1 -3,3 - - 9 5 - - W 1004,8 50 0,0
09.12.2017 16:00:00 -0,3 -3,7 - - 16 9 - - WNW 1005,6 35 0,0
09.12.2017 15:00:00 0,3 -2,9 - - 16 9 - - WNW 1006,2 45 0,0
09.12.2017 14:00:00 0,3 -3,5 - - 15 8 - - WNW 1007,3 50 0,0
09.12.2017 13:00:00 1,2 -3,0 - - 18 10 - - W 1008,0 50 0,0
09.12.2017 12:00:00 0,7 -2,7 - - 18 10 - - WNW 1009,0 50 0,0
09.12.2017 11:00:00 0,5 -2,1 - - 16 9 - - W 1009,9 45 0,0
09.12.2017 10:00:00 0,0 -3,0 - - 13 7 - - W 1010,7 24 0,0
09.12.2017 09:00:00 -0,4 -3,0 4,7 6,0 16 9 - - W 1010,9 40 0,0
09.12.2017 08:00:00 -0,3 -2,8 - - 15 8 - - WNW 1011,3 50 0,0
09.12.2017 07:00:00 0,1 -2,5 - - 15 8 - - W 1011,6 45 0,0
09.12.2017 06:00:00 -0,2 -2,4 - - 18 10 - - W 1012,0 45 0,0
09.12.2017 05:00:00 -0,2 -2,5 - - 16 9 - - WSW 1012,2 45 0,0
09.12.2017 04:00:00 -0,2 -2,7 - - 15 8 - - W 1012,6 50 0,0
09.12.2017 03:00:00 0,2 -2,5 - - 18 10 - - W 1013,0 14 0,0
09.12.2017 02:00:00 0,3 -2,5 - - 16 9 - - WSW 1013,0 50 0,0
09.12.2017 01:00:00 1,0 -2,3 - - 18 10 - - W 1013,3 35 0,0
09.12.2017 00:00:00 0,7 -2,2 - - 21 11 - - W 1013,8 30 0,0
08.12.2017 23:00:00 1,3 -1,7 - - 16 9 - - W 1013,5 29 0,0
08.12.2017 22:00:00 1,2 -1,9 - - 21 11 - - W 1013,4 18 0,0
08.12.2017 21:00:00 1,0 -2,2 - - 22 12 - - W 1012,3 35 0,0
08.12.2017 20:00:00 1,0 -2,0 - - 26 14 - - WNW 1011,9 17 0,0
08.12.2017 19:00:00 0,9 -2,0 - - 24 13 - - W 1011,8 19 0,0
08.12.2017 18:00:00 0,6 -2,5 - - 26 14 - - W 1011,0 13 0,0
08.12.2017 17:00:00 0,2 -2,5 - - 26 14 50 27 WNW 1010,6 24 0,0
08.12.2017 16:00:00 0,2 -3,5 - - 26 14 48 26 WNW 1010,4 30 0,0
08.12.2017 15:00:00 0,0 -3,7 - - 34 18 57 31 WNW 1010,0 30 0,0

tt = temperature
td = dewpoint
tt -20cm = temperature -20cm
tt -100cm = temperature -100cm
ff = wind speed
fx = gusts
dd = wind direction
ppp = reduced air pressure
vv = visibility
rr = precipitation

Next stations